Sheboygan, WI

5:25 AM CST on February 18, 2018 (GMT -0600)
Sheboygan County Memorial

Weather History for KSBM - November, 2012

Change the Weather History Date:

Thursday, November 29, 2012

  Actual Average Record
Temperature  
Mean Temperature 38 °F -  
Max Temperature 46 °F 37 °F 64 °F (1998)
Min Temperature 30 °F 24 °F -5 °F (1976)
Degree Days  
Heating Degree Days 27    
Moisture  
Dew Point 31 °F    
Average Humidity 77    
Maximum Humidity 93    
Minimum Humidity 50    
Precipitation  
Precipitation 0.00 in - - ()
Sea Level Pressure  
Sea Level Pressure 30.16 in    
Wind  
Wind Speed 8 mph (NE)    
Max Wind Speed 14 mph    
Max Gust Speed -    
Visibility 8 miles    
Events      
Averages and records for this station are not official NWS values.
T = Trace of Precipitation, MM = Missing Value Source: NWS Daily Summary

Daily Weather History Graph

Daily Weather History Graph

Search for Another Location

Airport or City:

Trip Planner

Search our weather history database for the weather conditions in past years. The results will help you decide how hot, cold, wet, or windy it might be!

Date:

Astronomy

Nov. 29, 2012 Rise Set
Actual Time 7:03 AM CST 4:15 PM CST
Civil Twilight 6:31 AM CST 4:48 PM CST
Nautical Twilight 5:55 AM CST 5:23 PM CST
Astronomical Twilight 5:21 AM CST 5:58 PM CST
Moon 5:18 PM CST (11/29) 7:50 AM CST (11/29)
Length of Visible Light 10h 16m
Length of Day
9h 12m
Full, 99% of the Moon is Illuminated
Nov 29
Full
Dec 6
Last Quarter
Dec 13
New
Dec 19
First Quarter
Dec 28
Full

Hourly Weather History & Observations

Time (CST) Temp. Windchill Dew Point Humidity Pressure Visibility Wind Dir Wind Speed Gust Speed Precip Events Conditions
12:53 AM 35.1 °F 28.6 °F 23.0 °F 61% 30.21 in 10.0 mi SW 8.1 mph - N/A   Clear
1:53 AM 35.1 °F 28.6 °F 23.0 °F 61% 30.21 in 10.0 mi SW 8.1 mph - N/A   Partly Cloudy
2:53 AM 35.1 °F 29.3 °F 24.1 °F 64% 30.20 in 10.0 mi SW 6.9 mph - N/A   Clear
4:53 AM 34.0 °F - 25.0 °F 70% 30.19 in 10.0 mi Calm Calm - N/A   Clear
5:53 AM 33.1 °F 27.7 °F 25.0 °F 72% 30.18 in 10.0 mi SW 5.8 mph - N/A   Clear
6:53 AM 32.0 °F 24.8 °F 25.0 °F 75% 30.19 in 10.0 mi WSW 8.1 mph - N/A   Clear
7:53 AM 30.0 °F 25.2 °F 25.0 °F 82% 30.18 in 9.0 mi SSW 4.6 mph - N/A   Clear
8:53 AM 36.0 °F 30.3 °F 27.0 °F 70% 30.18 in 10.0 mi WSW 6.9 mph - N/A   Clear
9:53 AM 41.0 °F 37.1 °F 28.0 °F 60% 30.17 in 10.0 mi West 5.8 mph - N/A   Clear
10:53 AM 45.0 °F 41.8 °F 28.9 °F 53% 30.17 in 10.0 mi West 5.8 mph - N/A   Clear
11:53 AM 46.9 °F - 28.9 °F 50% 30.14 in 10.0 mi Calm Calm - N/A   Clear
12:53 PM 42.1 °F 36.6 °F 30.9 °F 65% 30.13 in 9.0 mi East 9.2 mph - N/A   Clear
1:53 PM 41.0 °F 35.8 °F 30.0 °F 65% 30.12 in 9.0 mi East 8.1 mph - N/A   Clear
2:53 PM 41.0 °F 37.1 °F 32.0 °F 70% 30.13 in 8.0 mi East 5.8 mph - N/A   Clear
3:53 PM 37.9 °F 32.7 °F 32.0 °F 79% 30.14 in 7.0 mi ENE 6.9 mph - N/A   Clear
4:53 PM 33.1 °F 26.9 °F 30.0 °F 89% 30.15 in 7.0 mi NNE 6.9 mph - N/A   Clear
5:53 PM 34.0 °F 28.0 °F 30.9 °F 89% 30.17 in 7.0 mi NNE 6.9 mph - N/A   Clear
6:53 PM 34.0 °F 27.2 °F 32.0 °F 92% 30.17 in 6.0 mi NNE 8.1 mph - N/A   Clear
7:53 PM 37.0 °F 29.3 °F 35.1 °F 93% 30.18 in 7.0 mi NE 11.5 mph - N/A   Clear
8:14 PM 37.4 °F 29.3 °F 35.6 °F 93% 30.15 in 7.0 mi NE 12.7 mph - N/A   Mostly Cloudy
8:29 PM 37.4 °F 28.9 °F 35.6 °F 93% 30.15 in 7.0 mi ENE 13.8 mph - N/A   Mostly Cloudy
8:53 PM 37.9 °F 30.5 °F 35.1 °F 89% 30.17 in 7.0 mi ENE 11.5 mph - N/A   Mostly Cloudy
9:50 PM 39.2 °F 31.6 °F 35.6 °F 87% 30.15 in 8.0 mi NE 12.7 mph - N/A   Overcast
9:53 PM 39.0 °F 31.4 °F 36.0 °F 89% 30.17 in 8.0 mi NE 12.7 mph - N/A   Overcast
10:26 PM 39.2 °F 31.6 °F 35.6 °F 87% 30.15 in 8.0 mi NE 12.7 mph - N/A   Overcast
10:51 PM 39.2 °F 31.2 °F 35.6 °F 87% 30.14 in 8.0 mi NE 13.8 mph - N/A   Overcast
10:53 PM 39.0 °F 31.0 °F 36.0 °F 89% 30.16 in 8.0 mi NE 13.8 mph - N/A   Overcast
11:53 PM 39.0 °F 31.4 °F 36.0 °F 89% 30.16 in 8.0 mi NE 12.7 mph - N/A   Overcast